• In Hungary
  • List of Countries
  • For 7 days
  • Water Temperature
  • Satellite Maps
  • Weather Map
  • News
  • Weather Widgets
  • user-avatar
    Login

    Hourly Weather Elizavetino

    Today, 25 September, Tuesday

    Time Temperature Precipitation Wind Pressure Humidity
    00:00 +13°C° 0 mm 3 mps 734 mmHg 62%
    01:00 +12°C° 0 mm 3 mps 734 mmHg 63%
    02:00 +12°C° 0 mm 3 mps 734 mmHg 63%
    03:00 +12°C° 0 mm 3 mps 734 mmHg 63%
    04:00 +11°C° 0 mm 3 mps 734 mmHg 64%
    05:00 +11°C° 0 mm 3 mps 734 mmHg 65%
    06:00 +11°C° 0 mm 3 mps 734 mmHg 66%
    07:00 +11°C° 0 mm 3 mps 734 mmHg 67%
    08:00 +13°C° 0 mm 4 mps 735 mmHg 66%
    09:00 +14°C° 0 mm 5 mps 735 mmHg 66%
    10:00 +16°C° 0 mm 6 mps 735 mmHg 65%
    11:00 +16°C° 0 mm 7 mps 735 mmHg 63%
    12:00 +17°C° 0 mm 7 mps 735 mmHg 60%
    13:00 +18°C° 0 mm 7 mps 735 mmHg 57%
    14:00 +18°C° 0 mm 7 mps 735 mmHg 55%
    15:00 +18°C° 0 mm 7 mps 735 mmHg 53%
    16:00 +18°C° 0 mm 7 mps 734 mmHg 51%
    17:00 +16°C° 0 mm 6 mps 734 mmHg 54%
    18:00 +15°C° 0 mm 5 mps 734 mmHg 57%
    19:00 +14°C° 0 mm 4 mps 734 mmHg 60%
    20:00 +13°C° 0 mm 4 mps 734 mmHg 58%
    21:00 +13°C° 0 mm 4 mps 734 mmHg 57%
    22:00 +13°C° 0 mm 4 mps 734 mmHg 56%
    23:00 +13°C° 0 mm 5 mps 734 mmHg 56%

    Tomorrow, 26 September, Wednesday

    Time Temperature Precipitation Wind Pressure Humidity
    00:00 +13°C° 0 mm 5 mps 734 mmHg 56%
    01:00 +13°C° 0 mm 5 mps 734 mmHg 56%
    02:00 +13°C° 0 mm 6 mps 734 mmHg 55%
    03:00 +13°C° 0 mm 6 mps 734 mmHg 54%
    04:00 +13°C° 0 mm 6 mps 734 mmHg 53%
    05:00 +13°C° 0 mm 6 mps 735 mmHg 54%
    06:00 +13°C° 0 mm 6 mps 735 mmHg 54%
    07:00 +13°C° 0 mm 6 mps 735 mmHg 55%
    08:00 +13°C° 0 mm 6 mps 735 mmHg 55%
    09:00 +13°C° 0 mm 6 mps 736 mmHg 55%
    10:00 +14°C° 0 mm 6 mps 736 mmHg 55%
    11:00 +13°C° 0.4 mm 5 mps 736 mmHg 61%
    12:00 +13°C° 0.4 mm 4 mps 737 mmHg 67%
    13:00 +13°C° 0.4 mm 4 mps 737 mmHg 73%
    14:00 +12°C° 1.1 mm 3 mps 737 mmHg 78%
    15:00 +11°C° 1.1 mm 3 mps 737 mmHg 83%
    16:00 +10°C° 1.1 mm 3 mps 737 mmHg 89%
    17:00 +10°C° 0.7 mm 3 mps 737 mmHg 89%
    18:00 +9°C° 0.7 mm 3 mps 738 mmHg 89%
    19:00 +9°C° 0.7 mm 3 mps 738 mmHg 90%
    20:00 +9°C° 0.5 mm 3 mps 738 mmHg 90%
    21:00 +8°C° 0.5 mm 2 mps 738 mmHg 90%
    22:00 +8°C° 0.5 mm 2 mps 738 mmHg 91%
    23:00 +8°C° 0.3 mm 2 mps 738 mmHg 91%

    Day after tomorrow, 27 September, Thursday

    Time Temperature Precipitation Wind Pressure Humidity
    00:00 +8°C° 0.3 mm 2 mps 738 mmHg 92%
    01:00 +8°C° 0.3 mm 3 mps 738 mmHg 92%
    02:00 +8°C° 0.2 mm 3 mps 738 mmHg 93%
    03:00 +7°C° 0.2 mm 3 mps 738 mmHg 93%
    04:00 +7°C° 0.2 mm 3 mps 737 mmHg 93%
    05:00 +7°C° 0 mm 3 mps 737 mmHg 93%
    06:00 +5°C° 0 mm 3 mps 737 mmHg 93%
    07:00 +5°C° 0 mm 3 mps 737 mmHg 92%
    08:00 +6°C° 0 mm 4 mps 737 mmHg 87%
    09:00 +7°C° 0 mm 4 mps 737 mmHg 81%
    10:00 +7°C° 0 mm 5 mps 737 mmHg 76%
    11:00 +8°C° 0 mm 6 mps 737 mmHg 72%
    12:00 +9°C° 0 mm 6 mps 737 mmHg 68%
    13:00 +9°C° 0 mm 6 mps 736 mmHg 64%
    14:00 +9°C° 0 mm 7 mps 736 mmHg 61%
    15:00 +9°C° 0 mm 7 mps 735 mmHg 58%
    16:00 +9°C° 0 mm 7 mps 735 mmHg 55%
    17:00 +8°C° 0 mm 6 mps 735 mmHg 58%
    18:00 +7°C° 0 mm 5 mps 734 mmHg 60%
    19:00 +6°C° 0 mm 4 mps 734 mmHg 63%
    20:00 +6°C° 0 mm 5 mps 733 mmHg 61%
    21:00 +6°C° 0 mm 5 mps 733 mmHg 60%
    22:00 +5°C° 0 mm 6 mps 732 mmHg 59%
    23:00 +5°C° 0.1 mm 6 mps 732 mmHg 62%

    28 September, Friday

    Time Temperature Precipitation Wind Pressure Humidity
    00:00 +5°C° 0.1 mm 6 mps 731 mmHg 66%
    01:00 +4°C° 0.1 mm 6 mps 730 mmHg 70%
    02:00 +4°C° 0.4 mm 7 mps 730 mmHg 74%
    03:00 +4°C° 0.4 mm 7 mps 729 mmHg 77%
    04:00 +3°C° 0.4 mm 7 mps 729 mmHg 81%
    05:00 +3°C° 0.3 mm 7 mps 729 mmHg 83%
    06:00 +3°C° 0.3 mm 6 mps 729 mmHg 85%
    07:00 +4°C° 0.3 mm 6 mps 729 mmHg 87%
    08:00 +4°C° 0 mm 6 mps 730 mmHg 83%
    09:00 +5°C° 0 mm 6 mps 730 mmHg 80%
    10:00 +6°C° 0 mm 7 mps 731 mmHg 76%
    11:00 +6°C° 0 mm 7 mps 732 mmHg 71%
    12:00 +8°C° 0 mm 7 mps 732 mmHg 67%
    13:00 +9°C° 0 mm 7 mps 732 mmHg 62%
    14:00 +9°C° 0 mm 7 mps 733 mmHg 62%
    15:00 +9°C° 0 mm 7 mps 733 mmHg 61%
    16:00 +9°C° 0 mm 6 mps 733 mmHg 60%
    17:00 +8°C° 0 mm 6 mps 733 mmHg 65%
    18:00 +7°C° 0 mm 5 mps 734 mmHg 69%
    19:00 +6°C° 0 mm 4 mps 734 mmHg 74%
    20:00 +6°C° 0 mm 4 mps 734 mmHg 73%
    21:00 +5°C° 0 mm 4 mps 734 mmHg 73%
    22:00 +5°C° 0 mm 5 mps 734 mmHg 73%
    23:00 +5°C° 0 mm 6 mps 733 mmHg 70%

    29 September, Saturday

    Time Temperature Precipitation Wind Pressure Humidity
    00:00 +5°C° 0 mm 7 mps 732 mmHg 66%
    01:00 +5°C° 0 mm 7 mps 732 mmHg 63%
    02:00 +6°C° 0 mm 8 mps 731 mmHg 64%
    03:00 +6°C° 0 mm 9 mps 731 mmHg 65%
    04:00 +6°C° 0 mm 9 mps 730 mmHg 65%
    05:00 +6°C° 0.1 mm 9 mps 730 mmHg 68%
    06:00 +6°C° 0.1 mm 10 mps 730 mmHg 70%
    07:00 +7°C° 0.1 mm 10 mps 729 mmHg 73%
    08:00 +7°C° 0.4 mm 9 mps 730 mmHg 77%
    09:00 +8°C° 0.4 mm 9 mps 731 mmHg 81%
    10:00 +8°C° 0.4 mm 9 mps 731 mmHg 85%
    11:00 +9°C° 0.1 mm 8 mps 732 mmHg 81%
    12:00 +9°C° 0.1 mm 7 mps 733 mmHg 77%
    13:00 +10°C° 0.1 mm 6 mps 733 mmHg 73%
    14:00 +10°C° 0 mm 5 mps 734 mmHg 68%
    15:00 +10°C° 0 mm 5 mps 735 mmHg 64%
    16:00 +11°C° 0 mm 4 mps 735 mmHg 59%
    17:00 +8°C° 0 mm 4 mps 736 mmHg 64%
    18:00 +8°C° 0 mm 3 mps 736 mmHg 68%
    19:00 +6°C° 0 mm 2 mps 737 mmHg 72%
    20:00 +6°C° 0 mm 2 mps 737 mmHg 72%
    21:00 +5°C° 0 mm 2 mps 737 mmHg 73%
    22:00 +6°C° 0 mm 1 mps 738 mmHg 73%
    23:00 +6°C° 0 mm 1 mps 738 mmHg 72%

    30 September, Sunday

    Time Temperature Precipitation Wind Pressure Humidity
    00:00 +6°C° 0 mm 1 mps 738 mmHg 71%
    01:00 +6°C° 0 mm 1 mps 738 mmHg 70%
    02:00 +5°C° 0 mm 2 mps 738 mmHg 71%
    03:00 +5°C° 0 mm 2 mps 739 mmHg 71%
    04:00 +4°C° 0 mm 2 mps 739 mmHg 71%
    05:00 +4°C° 0 mm 2 mps 739 mmHg 72%
    06:00 +4°C° 0 mm 2 mps 739 mmHg 72%
    07:00 +5°C° 0 mm 1 mps 739 mmHg 73%
    08:00 +5°C° 0 mm 2 mps 739 mmHg 71%
    09:00 +5°C° 0 mm 2 mps 739 mmHg 70%
    10:00 +5°C° 0 mm 2 mps 740 mmHg 69%
    11:00 +6°C° 0.1 mm 2 mps 740 mmHg 67%
    12:00 +6°C° 0.1 mm 2 mps 740 mmHg 65%
    13:00 +7°C° 0.1 mm 2 mps 740 mmHg 63%
    14:00 +7°C° 0 mm 2 mps 740 mmHg 62%
    15:00 +7°C° 0 mm 2 mps 740 mmHg 61%
    16:00 +7°C° 0 mm 2 mps 740 mmHg 61%
    17:00 +6°C° 0 mm 2 mps 740 mmHg 64%
    18:00 +5°C° 0 mm 2 mps 740 mmHg 68%
    19:00 +4°C° 0 mm 2 mps 740 mmHg 72%
    20:00 +4°C° 0 mm 2 mps 740 mmHg 72%
    21:00 +4°C° 0 mm 2 mps 741 mmHg 72%
    22:00 +4°C° 0 mm 2 mps 741 mmHg 73%
    23:00 +3°C° 0 mm 2 mps 741 mmHg 74%
    Show more